Location: Burzi?i
(45.0869°N, 16.0577°E)
Time: 12:06:52
(UTC+00:00)

SL-08 ROCKET BODY - Pass Details

Date: 29 October 2020
Orbit: 897 x 962 km, 82.9° (Epoch: 28 November)

Event Time Altitude Azimuth Distance (km) Brightness Sun altitude
Rises 16:52:03 0° 354° (N) 3,617 7.5 -11.9°
Reaches altitude 10° 16:54:35 10° 358° (N) 2,677 6.8 -12.3°
Maximum altitude 17:00:39 60° 78° (ENE) 1,087 4.5 -13.4°
Drops below altitude 10° 17:06:43 10° 158° (SSE) 2,688 6.6 -14.5°
Sets 17:09:16 0° 162° (SSE) 3,632 7.4 -14.9°
